Regional Weather Roundup
Issued by NWS San Diego, CA

Home | Current Version | Previous Version | Text Only | Print | Product List | Glossary On
Versions: 1 2 3 4 5 6 7 8 9 10 11 12 13 14 15 16 17 18 19 20 21 22 23 24 25 26 27 28 29 30 31 32 33 34 35 36 37 38 39 40 41 42 43 44 45 46 47 48 49 50
000
ASUS46 KSGX 052211
RWRSGX

SAN DIEGO HOURLY WEATHER ROUNDUP
NATIONAL WEATHER SERVICE SAN DIEGO CA
300 PM PDT THU MAY 05 2016

NOTE: "FAIR" INDICATES FEW OR NO CLOUDS BELOW 12,000 FEET WITH NO
SIGNIFICANT WEATHER AND/OR OBSTRUCTIONS TO VISIBILITY.

CAZ042-043-060-061-PZZ750-775-052300-

GREATER SAN DIEGO AREA

CITY           SKY/WX    TMP DP  RH WIND       PRES   REMARKS
LINDBERGH FLD  PTSUNNY   66  49  54 S9        29.95F
POINT LOMA       N/A     73 -10   3 SW8         N/A
NATIONAL CITY    N/A     65  56  71 SW5       29.95F
CHULA VISTA      N/A     65  56  72 W3        29.87S
IMPERIAL BEACH PTSUNNY   71  55  56 SW12      29.95F
BROWN FIELD    CLOUDY    65  50  58 W15       29.93
MIRAMAR MCAS   PTSUNNY   68  47  46 SW10      29.93F
MONTGOMERY FLD CLOUDY    67  46  47 SW9       29.94F

$$

NORTH SAN DIEGO COUNTY

CITY           SKY/WX    TMP DP  RH WIND       PRES   REMARKS
CAMP PENDLETON PTSUNNY   64  53  67 SW8       29.93F
OCEANSIDE AP   CLOUDY    66  50  56 SW13      29.93S
OCEANSIDE HBR    N/A     64  55  71 S15       29.96S
VISTA            N/A     65  53  65 SW6       29.92S
CARLSBAD       CLOUDY    65  49  56 SW7       29.93S
DEL MAR          N/A     64  54  71 SW1       29.97S
LA JOLLA SCRIP   N/A     64  54  69 S2        29.93F
FALLBROOK        N/A     65  55  68 SW8       29.93S
ESCONDIDO        N/A     65  52  63 SW2       29.95F
SAN MARCOS       N/A     62  50  64 SW8       29.92S

$$

EAST SAN DIEGO COUNTY

CITY           SKY/WX    TMP DP  RH WIND       PRES   REMARKS
RAMONA         CLOUDY    58  51  78 W7        29.94S
SANTEE LAKES     N/A     64  50  61 SW3       29.92F
LA MESA          N/A     63  49  60 W2        29.87F
JAMUL            N/A     65  52  62 W2        29.93F
DESCANSO N       N/A     51  46  83 W9        29.81S
MT. LAGUNA OBS   N/A     44  37  75 W20       29.53
CAMPO            N/A     59  44  57 W15G23    29.89S

$$

ORANGE COUNTY AND THE LOS ANGELES BASIN

CITY           SKY/WX    TMP DP  RH WIND       PRES   REMARKS
JOHN WAYNE AP  CLOUDY    66  47  50 S8        29.92F
LAKE FOREST FR   N/A     62  44  52 CALM      29.83F
HUNTINGTON BCH   N/A     70  54  57 S3        29.94F
LOS ALAMITOS   FAIR      68  48  50 VRB3      29.92S
FULLERTON      CLOUDY    68  46  45 S10       29.91S
LONG BEACH     CLOUDY    66  50  56 VRB7      29.92S
L.A. AP        PTSUNNY   68  47  46 W8        29.91F
L.A. DOWNTOWN  CLOUDY    68  47  46 VRB3      29.90F

$$

THE INLAND EMPIRE

CITY           SKY/WX    TMP DP  RH WIND       PRES   REMARKS
CORONA         CLOUDY    66  49  54 W9        29.91
CHINO          PTSUNNY   70  49  47 SW14      29.92S
ONTARIO        CLOUDY    64  48  56 SW15      29.91S
SAN BERNARDINO CLOUDY    66  45  45 SW14      29.91S
RIVERSIDE AP   CLOUDY    67  48  50 W13       29.91S
MORENO VALLEY    N/A     62  53  72 W6        28.04S
MARCH ARB      CLOUDY    61  48  62 W9        29.91S
HORSETHIEF CYN   N/A     61  46  57 W6        29.94S
PERRIS           N/A     62  50  65 W1        29.89S
HEMET EAST       N/A     59  42  51 W6        29.80S
FRENCH VALLEY  CLOUDY    59  48  67 SW9       29.93S
TEMECULA         N/A     61  54  77 SW6       29.89F

$$

SAN BERNARDINO AND RIVERSIDE COUNTY MOUNTAINS

CITY           SKY/WX    TMP DP  RH WIND       PRES   REMARKS
BIG BEAR AP    MOSUNNY   45  34  65 W14G22    29.93R
ANGELUS OAKS     N/A     44  38  80 CALM      29.78F
PINE COVE        N/A     40  39  95 CALM      29.80R

$$

SOUTHERN DESERT INCLUDING THE COACHELLA VALLEY

CITY           SKY/WX    TMP DP  RH WIND       PRES   REMARKS
PALM SPRINGS   MOSUNNY   80  42  25 NW24G30   29.75F
THOUSAND PALMS   N/A     79  43  28 NW21      29.72F
PALM DESERT      N/A     83  45  26 N3        28.96S
THERMAL        SUNNY     86  39  19 N21G26    29.69F
BLYTHE         SUNNY     90  36  14 S21G30    29.70F
IMPERIAL AP    SUNNY     83  43  24 W24G33    29.71F
EL CENTRO NAS  MOSUNNY   85  39  19 W30G41    29.74F
YUMA AZ        MOSUNNY   89  36  15 S17G24    29.71
MEXICALI       SUNNY     86  32  14 NW3       29.71

$$

UPPER DESERT

CITY           SKY/WX    TMP DP  RH WIND       PRES   REMARKS
VICTORVILLE AP MOSUNNY   68  37  32 S28G33    29.83F
HESPERIA         N/A     60  44  54 W15       29.94S
PALMDALE       SUNNY     64  44  48 SW31G38   29.84S
LANCASTER      SUNNY     63  44  50 SW26G37   29.86S
EDWARDS AFB    MOSUNNY   67  42  41 SW28G35   29.80S
DAGGETT        MOSUNNY   73  34  23 W24G33    29.76S
29 PALMS N     MOSUNNY   80  19  10 S13       29.79F
NEEDLES        SUNNY     91  26   9 S17G31    29.68F

$$

REGIONAL REPORTS

CITY           SKY/WX    TMP DP  RH WIND       PRES   REMARKS
SANTA BARBARA  MOSUNNY   65  50  58 SE8       29.90F
SANDBERG       CLOUDY    55  41  59 S21G32    29.91S
LAS VEGAS NV   PTSUNNY   84  16   8 S18G25    29.68F
PHOENIX AZ     PTSUNNY   96  26   8 S17G23    29.70F
TIJUANA        CLOUDY    64  45  48 SW9       29.96S
ENSENADA NW      N/A     66  32  27 SW6       29.92F

$$

OFFSHORE ISLANDS

CITY           SKY/WX    TMP DP  RH WIND       PRES   REMARKS
CATALINA ARPT  CLOUDY    60  45  57 W12G17    29.94F
SAN CLEMENTE I MOSUNNY   66  51  58 S9        29.93F
SAN NICOLAS IS CLOUDY    60  52  74 S8        29.91F

$$

MARINE AND OFFSHORE BUOY REPORTS

STATION/POSITION SKY/WX   TEMP    WIND        PRES    SWELL
                          AIR SEA DIR/SP/G            HT/PER/DIR
                          (F)     (DEG/KT/KT) (MB)    (FT/S/D)
TANNER BANKS               59 61  180/  8/ 10 1012.8F   5/240/11
S CLEMENTE BASIN           62 64  230/  4/  6 1013.5F   3/190/15
SAN NICOLAS IS.               60                N/A     5/300/11
SO. S. ROSA ISLA           59 59  160/  4/  6 1013.1F   7/310/11
W. S. BARBARA CH           58 58  170/  6/  8 1012.6R   7/290/11
M. S. BARBARA CH           59 58   40/  2/  4 1013.5F
S. MONICA BASIN            60 62  200/  6/  8 1013.4F   3/180/15
OCEANSIDE OFFSHR              65                N/A     3/200/14
TORREY PINES OTR              65                N/A     2/190/13
LA JOLLA 1                 64 67  200/ 12/ 15 1013.9F
SAN DIEGO BAY                 68              1014.3R
POINT LOMA SOUTH              64                N/A     3/210/12

$$




USA.gov is the U.S. government's official web portal to all federal, state and local government web resources and services.